Tracking 29528 objects as of 12-Sep-2024
HD Live streaming from Space Station
objects crossing your sky now

O3BF04

Track O3BF04 now!
10-day predictions


NORAD ID: 56367
Int'l Code: 2023-059A
Perigee: 8,063.7 km
Apogee: 8,082.4 km
Inclination: 0.1 °
Period: 287.9 minutes
Semi major axis: 14444 km
RCS: Unknown
Launch date: April 28, 2023
Source: SOCIETE EUROPEENNE DES SATELLITES (SES)
Launch site: AIR FORCE EASTERN TEST RANGE (AFETR)
Your satellite tracking list
Your tracking list is empty




NASA's NSSDC Master Catalog

Two Line Element Set (TLE):
1 56367U 23059A   24255.72822034 -.00000017  00000-0  00000-0 0  9991
2 56367   0.0661 358.2778 0006488 158.0570 203.6981  5.00113382 26419
Source of the keplerian elements: AFSPC